Location: Bannatyne
(13.0833°N, 59.5333°W)
Time: 01:10:22
(UTC+00:00)

Transit 2A - Pass Details

Date: 06 February 2020
Orbit: 599 x 959 km, 66.7° (Epoch: 27 February)

Event Time Altitude Azimuth Distance (km) Brightness Sun altitude
Rises 06:36:25 0° 348° (NNW) 3,214 - -55.0°
Reaches altitude 10° 06:38:47 10° 354° (N) 2,344 - -54.4°
Maximum altitude 06:44:02 50° 69° (ENE) 1,065 - -53.2°
Drops below altitude 10° 06:49:47 10° 144° (SE) 2,568 - -51.8°
Exits shadow 06:52:22 - 149° (SSE) 3,511 9.8 -51.2°
Sets 06:52:28 0° 149° (SSE) 3,550 9.8 -51.2°
